Weather History for Fryeburg, ME

Change the Weather History Date:

Tuesday, July 30, 2013

  Actual Average Record
Temperature  
Mean Temperature 70 °F -  
Max Temperature 80 °F 79 °F 90 °F (2002)
Min Temperature 60 °F 54 °F 44 °F (2010)
Cooling Degree Days 4    
Growing Degree Days 20 (Base 50)    
Moisture  
Dew Point 57 °F    
Average Humidity 73    
Maximum Humidity 100    
Minimum Humidity 36    
Precipitation  
Precipitation 0.00 in - - ()
Sea Level Pressure  
Sea Level Pressure 30.06 in    
Wind  
Wind Speed 2 mph (WNW)    
Max Wind Speed 10 mph    
Max Gust Speed 18 mph    
Visibility 9 miles    
Events      
Averages and records for this station are not official NWS values.
T = Trace of Precipitation, MM = Missing Value Source: NWS Daily Summary

Daily Weather History Graph

Daily Weather History Graph

Search for Another Location

Airport:

Trip Planner

Search our weather history database for the weather conditions in past years. The results will help you decide how hot, cold, wet, or windy it might be!

Date:

Astronomy

Jul. 30, 2013 Rise Set
Actual Time 5:30 AM EDT 8:09 PM EDT
Civil Twilight 4:56 AM EDT 8:42 PM EDT
Nautical Twilight 4:15 AM EDT 9:24 PM EDT
Astronomical Twilight 3:27 AM EDT 10:11 PM EDT
Moon No Moon Rise 2:26 PM EDT (7/30)
Length of Visible Light 15h 45m
Length of Day
14h 39m
Last Quarter, 41% of the Moon is Illuminated
Jul 30
Last Quarter
Aug 6
New
Aug 14
First Quarter
Aug 20
Full
Aug 28
Last Quarter

Hourly Weather History & Observations

Time (EDT) Temp. Dew Point Humidity Pressure Visibility Wind Dir Wind Speed Gust Speed Precip Events Conditions
12:54 AM 64.0 °F 63.0 °F 96% 30.06 in 10.0 mi Calm Calm - N/A   Overcast
1:51 AM 64.4 °F 62.6 °F 94% 30.06 in 10.0 mi Calm Calm - N/A   Overcast
1:54 AM 64.0 °F 63.0 °F 96% 30.05 in 10.0 mi Calm Calm - N/A   Overcast
2:54 AM 63.0 °F 62.1 °F 97% 30.05 in 7.0 mi Calm Calm - N/A   Overcast
3:54 AM 62.1 °F 61.0 °F 96% 30.05 in 10.0 mi SW 3.5 mph - N/A   Overcast
4:13 AM 60.8 °F 60.8 °F 100% 30.05 in 10.0 mi Calm Calm - N/A   Overcast
4:54 AM 60.1 °F 59.0 °F 96% 30.06 in 10.0 mi Calm Calm - N/A   Mostly Cloudy
5:54 AM 61.0 °F 60.1 °F 97% 30.07 in 3.0 mi Calm Calm - N/A   Overcast
6:13 AM 60.8 °F 60.8 °F 100% 30.07 in 10.0 mi Calm Calm - N/A   Overcast
6:49 AM 60.8 °F 60.8 °F 100% 30.07 in 2.0 mi WNW 3.5 mph - N/A   Overcast
6:54 AM 61.0 °F 60.1 °F 97% 30.07 in 1.2 mi Calm Calm - N/A   Overcast
7:09 AM 60.8 °F 60.8 °F 100% 30.07 in 2.0 mi Calm Calm - N/A   Overcast
7:18 AM 60.8 °F 60.8 °F 100% 30.07 in 8.0 mi Calm Calm - N/A   Overcast
7:51 AM 62.6 °F 60.8 °F 94% 30.07 in 10.0 mi Calm Calm - N/A   Scattered Clouds
7:54 AM 63.0 °F 61.0 °F 93% 30.07 in 10.0 mi Calm Calm - N/A   Partly Cloudy
8:54 AM 71.1 °F 57.0 °F 61% 30.08 in 10.0 mi Calm Calm - N/A   Clear
9:54 AM 73.9 °F 57.0 °F 55% 30.08 in 10.0 mi Variable 4.6 mph - N/A   Clear
10:54 AM 75.0 °F 54.0 °F 48% 30.08 in 10.0 mi Variable 5.8 mph - N/A   Clear
11:54 AM 77.0 °F 52.0 °F 42% 30.07 in 10.0 mi WNW 8.1 mph - N/A   Clear
12:54 PM 78.1 °F 53.1 °F 42% 30.06 in 10.0 mi West 10.4 mph 18.4 mph N/A   Partly Cloudy
1:54 PM 79.0 °F 51.1 °F 38% 30.05 in 10.0 mi Variable 5.8 mph 17.3 mph N/A   Partly Cloudy
2:54 PM 79.0 °F 50.0 °F 36% 30.05 in 10.0 mi WNW 8.1 mph 17.3 mph N/A   Clear
3:54 PM 79.0 °F 50.0 °F 36% 30.04 in 10.0 mi WNW 10.4 mph 16.1 mph N/A   Clear
4:54 PM 78.1 °F 50.0 °F 37% 30.03 in 10.0 mi NW 4.6 mph - N/A   Clear
5:54 PM 77.0 °F 48.9 °F 37% 30.04 in 10.0 mi WNW 8.1 mph - N/A   Clear
6:54 PM 75.0 °F 51.1 °F 43% 30.05 in 10.0 mi Variable 5.8 mph - N/A   Clear
7:54 PM 69.1 °F 52.0 °F 54% 30.07 in 10.0 mi West 3.5 mph - N/A   Clear
8:54 PM 66.9 °F 52.0 °F 59% 30.08 in 10.0 mi West 3.5 mph - N/A   Clear
9:54 PM 64.0 °F 53.1 °F 67% 30.09 in 10.0 mi Variable 3.5 mph - N/A   Partly Cloudy
10:54 PM 60.1 °F 54.0 °F 80% 30.10 in 10.0 mi Calm Calm - N/A   Clear
11:54 PM 61.0 °F 54.0 °F 78% 30.09 in 10.0 mi Calm Calm - N/A   Clear